N8WJE Weather Reports


time (UTC)temp
F
wind
direction
speed
knots
gust
knots
rain 1hr
in
rain 24hr
in
rain mn
in
humidity
%
barometer
mb
20260906082003 77 55 0.0 0.9 0.00 0.00 0.00 76 1013.7
20260906081503 77 55 0.0 0.9 0.00 0.00 0.00 76 1013.7
20260906081003 77 55 0.0 2.6 0.00 0.00 0.00 75 1014.0
20260906080503 77 55 0.9 3.5 0.00 0.00 0.00 75 1014.1
20260906080003 78 54 0.9 5.2 0.00 0.00 0.00 74 1014.2
20260906075717 78 53 0.9 5.2 0.00 0.00 0.00 74 1014.4
20260906075003 78 50 0.9 5.2 0.00 0.00 0.00 75 1014.7
20260906074503 78 49 0.9 5.2 0.00 0.00 0.00 76 1014.7
20260906074003 78 61 0.9 5.2 0.00 0.00 0.00 76 1014.5
20260906073503 79 63 0.9 6.1 0.00 0.00 0.00 77 1014.7
20260906073003 79 289 0.9 6.1 0.00 0.00 0.00 77 1014.7
20260906072503 79 309 0.9 6.1 0.00 0.00 0.00 77 1014.9
20260906072003 79 351 0.9 6.1 0.00 0.00 0.00 77 1014.8
20260906071503 79 299 2.6 9.6 0.00 0.00 0.00 77 1015.0
20260906071003 79 280 2.6 9.6 0.00 0.00 0.00 78 1015.0
20260906070503 80 272 2.6 7.0 0.00 0.00 0.00 78 1015.1
20260906070218 80 272 0.9 7.0 0.00 0.00 0.00 78 1015.1
20260906065503 80 272 0.0 2.6 0.00 0.00 0.00 78 1014.9
20260906065003 80 272 0.0 0.9 0.00 0.00 0.00 79 1014.6
20260906064503 80 272 0.0 3.5 0.00 0.00 0.00 80 1014.5
20260906064003 80 272 0.0 3.5 0.00 0.00 0.00 80 1014.5
20260906063716 80 272 0.0 3.5 0.00 0.00 0.00 81 1014.5
20260906063003 79 272 0.0 3.5 0.00 0.00 0.00 82 1014.3
20260906062503 80 272 0.9 3.5 0.00 0.00 0.00 82 1014.2
20260906062003 80 272 0.0 2.6 0.00 0.00 0.00 81 1014.3
20260906061503 79 0 0.0 0.0 0.00 0.00 0.00 82 1014.3
20260906061003 80 0 0.0 0.0 0.00 0.00 0.00 81 1014.4
20260906060503 80 0 0.0 0.0 0.00 0.00 0.00 80 1014.5
20260906060003 80 272 0.0 0.9 0.00 0.00 0.00 80 1014.4
20260906055503 80 272 0.0 5.2 0.00 0.00 0.00 80 1014.5
20260906055003 80 272 0.0 5.2 0.00 0.00 0.00 80 1014.5
20260906054503 80 272 0.0 2.6 0.00 0.00 0.00 81 1014.5
20260906054003 79 272 0.0 0.9 0.00 0.00 0.00 82 1014.7
20260906053503 78 272 0.0 0.9 0.00 0.00 0.00 83 1014.5
20260906053003 78 272 0.0 0.9 0.00 0.00 0.00 84 1014.4
20260906052718 78 272 0.0 2.6 0.00 0.00 0.00 84 1014.5
20260906052003 78 272 0.9 2.6 0.00 0.00 0.00 84 1014.3
20260906051503 78 272 0.0 2.6 0.00 0.00 0.00 84 1014.1
20260906051003 78 0 0.0 0.0 0.00 0.00 0.00 83 1014.0
20260906050503 78 0 0.0 0.0 0.00 0.00 0.00 83 1014.1
20260906050004 78 0 0.0 0.0 0.00 0.00 0.00 83 1014.1
20260906045503 79 0 0.0 0.0 0.00 0.00 0.00 82 1014.2
20260906045217 79 0 0.0 0.0 0.00 0.00 0.00 82 1014.2
20260906044503 79 0 0.0 0.0 0.00 0.00 0.00 82 1014.4
20260906044003 79 0 0.0 0.0 0.00 0.00 0.00 82 1014.4
20260906043718 79 0 0.0 0.0 0.00 0.00 0.00 81 1014.5
20260906043003 79 0 0.0 0.0 0.00 0.00 0.00 81 1014.7
20260906042503 79 0 0.0 0.0 0.00 0.00 0.00 81 1014.4
20260906042003 79 0 0.0 0.0 0.00 0.00 0.00 80 1014.6
20260906041503 79 0 0.0 0.0 0.00 0.00 0.00 80 1014.4
20260906041003 79 0 0.0 0.0 0.00 0.00 0.00 80 1014.6
20260906040503 79 0 0.0 0.0 0.00 0.00 0.00 80 1014.5
20260906040003 79 0 0.0 0.0 0.00 0.00 0.00 79 1014.4
20260906035717 79 0 0.0 0.0 0.00 0.00 0.00 79 1014.5
20260906035003 80 0 0.0 0.0 0.00 0.00 0.00 79 1014.5
20260906034503 80 0 0.0 0.0 0.00 0.00 0.00 78 1014.5
20260906034216 80 0 0.0 0.0 0.00 0.00 0.00 78 1014.6
20260906033503 80 272 0.0 0.9 0.00 0.00 0.00 78 1014.6
20260906033003 80 272 0.0 0.9 0.00 0.00 0.00 78 1014.6
20260906032717 80 272 0.0 0.9 0.00 0.00 0.00 78 1014.4
20260906032003 80 0 0.0 0.0 0.00 0.00 0.00 77 1014.5
20260906031717 80 0 0.0 0.0 0.00 0.00 0.00 78 1014.4
20260906031003 80 272 0.0 0.9 0.00 0.00 0.00 77 1014.5
20260906030503 80 272 0.0 0.9 0.00 0.00 0.00 76 1014.7
20260906030218 80 0 0.0 0.0 0.00 0.00 0.00 76 1014.6
20260906025717 80 0 0.0 0.0 0.00 0.00 0.00 76 1014.6
20260906025003 80 0 0.0 0.0 0.00 0.00 0.00 75 1014.6
20260906024717 80 0 0.0 0.0 0.00 0.00 0.00 75 1014.6
20260906024003 80 0 0.0 0.0 0.00 0.00 0.00 74 1014.4
20260906023503 81 0 0.0 0.0 0.00 0.00 0.00 75 1014.3
20260906023003 81 0 0.0 0.0 0.00 0.00 0.00 73 1014.2
20260906022503 81 0 0.0 0.0 0.00 0.00 0.00 74 1014.2
20260906022003 81 0 0.0 0.0 0.00 0.00 0.00 73 1014.1
20260906021717 81 0 0.0 0.0 0.00 0.00 0.00 73 1013.9
20260906021003 81 0 0.0 0.0 0.00 0.00 0.00 72 1014.1
20260906020717 81 272 0.0 0.9 0.00 0.00 0.00 71 1014.0
20260906020003 81 272 0.0 0.9 0.00 0.00 0.00 70 1013.7
20260906015503 82 0 0.0 0.0 0.00 0.00 0.00 70 1013.8
20260906015004 82 0 0.0 0.0 0.00 0.00 0.00 70 1013.7
20260906014503 82 0 0.0 0.0 0.00 0.00 0.00 69 1013.6
20260906014003 82 0 0.0 0.0 0.00 0.00 0.00 69 1013.5
20260906013717 82 0 0.0 0.0 0.00 0.00 0.00 68 1013.5
20260906013003 83 0 0.0 0.0 0.00 0.00 0.00 66 1013.3
20260906012503 83 0 0.0 0.0 0.00 0.00 0.00 66 1013.4
20260906012003 83 272 0.0 0.9 0.00 0.00 0.00 65 1013.5
20260906011717 83 272 0.0 2.6 0.00 0.00 0.00 65 1013.4
20260906011217 83 272 0.0 2.6 0.00 0.00 0.00 65 1013.3
20260906010503 83 272 0.9 3.5 0.00 0.00 0.00 66 1013.3
20260906010003 84 272 0.0 2.6 0.00 0.00 0.00 66 1013.3
20260906005716 84 272 0.0 0.9 0.00 0.00 0.00 65 1013.3
20260906005003 85 272 0.0 0.9 0.00 0.00 0.00 64 1013.0
20260906004503 85 272 0.0 0.9 0.00 0.00 0.00 64 1013.0
20260906004003 86 272 0.0 0.9 0.00 0.00 0.00 64 1013.0
20260906003503 86 0 0.0 0.0 0.00 0.00 0.00 62 1013.0
20260906003003 86 272 0.0 0.9 0.00 0.00 0.00 62 1013.0
20260906002718 86 272 0.0 0.9 0.00 0.00 0.00 62 1013.2
20260906002004 87 272 0.0 0.9 0.00 0.00 0.00 62 1013.1
20260906001503 87 272 0.0 2.6 0.00 0.00 0.00 62 1013.3
20260906001003 87 272 0.0 2.6 0.00 0.00 0.00 61 1013.4
20260906000718 87 272 0.0 2.6 0.00 0.00 0.00 62 1013.4
20260906000003 88 272 0.9 3.5 0.00 0.00 0.00 61 1013.8
20260905235503 88 272 0.9 7.0 0.00 0.00 0.00 60 1013.6
20260905235003 91 272 0.9 7.0 0.00 0.00 0.00 57 1013.4
20260905234503 93 272 0.9 3.5 0.00 0.00 0.00 55 1013.4
20260905234003 94 272 0.9 2.6 0.00 0.00 0.00 55 1012.9
20260905233503 94 272 2.6 3.5 0.00 0.00 0.00 55 1012.8
20260905233217 94 272 2.6 5.2 0.00 0.00 0.00 54 1013.1
20260905232503 94 272 2.6 5.2 0.00 0.00 0.00 55 1012.8
20260905232003 94 272 2.6 3.5 0.00 0.00 0.00 55 1012.7
20260905231503 94 272 0.9 5.2 0.00 0.00 0.00 55 1012.8
20260905231003 94 272 0.9 5.2 0.00 0.00 0.00 53 1012.8
20260905230503 94 272 0.9 5.2 0.00 0.00 0.00 54 1012.7
20260905230004 95 272 0.9 5.2 0.00 0.00 0.00 53 1012.7
20260905225503 95 272 0.9 3.5 0.00 0.00 0.00 53 1012.8
20260905225003 95 272 0.9 2.6 0.00 0.00 0.00 54 1012.7
20260905224503 94 272 0.9 2.6 0.00 0.00 0.00 54 1012.7
20260905224003 95 272 2.6 3.5 0.00 0.00 0.00 53 1012.8
20260905223503 95 272 2.6 3.5 0.00 0.00 0.00 55 1012.7
20260905223003 95 272 2.6 5.2 0.00 0.00 0.00 54 1012.8
20260905222503 95 272 0.9 5.2 0.00 0.00 0.00 53 1012.7
20260905222003 94 272 0.0 2.6 0.00 0.00 0.00 56 1012.9
20260905221503 94 0 0.0 0.0 0.00 0.00 0.00 53 1012.9
20260905221003 95 0 0.0 0.0 0.00 0.00 0.00 52 1012.9
20260905220717 95 272 0.0 0.9 0.00 0.00 0.00 52 1012.8
20260905220003 95 272 0.0 0.9 0.00 0.00 0.00 52 1013.1
20260905215503 95 272 0.0 2.6 0.00 0.00 0.00 49 1013.0
20260905215003 95 272 0.0 3.5 0.00 0.00 0.00 51 1013.0
20260905214717 95 272 0.9 3.5 0.00 0.00 0.00 50 1013.1
20260905214003 95 272 0.0 2.6 0.00 0.00 0.00 53 1013.2
20260905213503 94 272 0.0 3.5 0.00 0.00 0.00 54 1013.1
20260905213218 94 272 0.0 3.5 0.00 0.00 0.00 56 1013.1
20260905212503 94 272 0.9 5.2 0.00 0.00 0.00 55 1013.1
20260905212003 94 272 2.6 5.2 0.00 0.00 0.00 54 1013.2
20260905211503 95 272 2.6 8.7 0.00 0.00 0.00 53 1013.2
20260905211003 96 272 2.6 8.7 0.00 0.00 0.00 51 1013.1
20260905210504 97 272 0.9 7.0 0.00 0.00 0.00 48 1013.0
20260905210003 97 272 0.9 7.0 0.00 0.00 0.00 47 1013.1
20260905205503 97 272 0.9 7.0 0.00 0.00 0.00 51 1013.0
20260905205003 97 272 0.9 5.2 0.00 0.00 0.00 51 1013.2
20260905204503 98 272 0.9 5.2 0.00 0.00 0.00 48 1013.0
20260905204003 97 272 0.9 5.2 0.00 0.00 0.00 48 1013.3
20260905203504 97 272 0.0 2.6 0.00 0.00 0.00 50 1013.3
20260905203003 97 272 0.9 5.2 0.00 0.00 0.00 48 1013.3
20260905202504 97 272 2.6 8.7 0.00 0.00 0.00 50 1013.3
20260905202003 97 272 2.6 8.7 0.00 0.00 0.00 44 1013.5
20260905201717 97 272 0.9 8.7 0.00 0.00 0.00 45 1013.5
20260905201003 97 272 0.0 5.2 0.00 0.00 0.00 47 1013.7
20260905200716 97 272 0.0 5.2 0.00 0.00 0.00 47 1013.7
20260905200003 95 272 0.9 3.5 0.00 0.00 0.00 51 1014.0
20260905195503 96 272 0.9 7.0 0.00 0.00 0.00 49 1014.2
20260905195217 97 272 2.6 7.0 0.00 0.00 0.00 47 1014.1
20260905194503 97 272 0.9 5.2 0.00 0.00 0.00 48 1014.0
20260905194003 97 272 2.6 9.6 0.00 0.00 0.00 49 1014.2
20260905193503 97 272 0.9 9.6 0.00 0.00 0.00 49 1014.3
20260905193003 97 272 0.0 0.9 0.00 0.00 0.00 48 1014.4
20260905192503 96 272 0.0 5.2 0.00 0.00 0.00 50 1014.2
20260905192003 96 272 0.0 5.2 0.00 0.00 0.00 53 1014.3
20260905191503 96 272 0.0 3.5 0.00 0.00 0.00 52 1014.5
20260905191003 95 272 0.9 7.0 0.00 0.00 0.00 50 1014.4
20260905190503 96 272 2.6 7.0 0.00 0.00 0.00 51 1014.6
20260905190003 96 272 0.9 7.0 0.00 0.00 0.00 53 1014.8
20260905185503 95 272 0.0 3.5 0.00 0.00 0.00 53 1014.6
20260905185003 95 272 0.0 0.9 0.00 0.00 0.00 54 1014.7
20260905184503 94 272 0.9 2.6 0.00 0.00 0.00 56 1014.6
20260905184003 94 272 0.9 5.2 0.00 0.00 0.00 57 1014.7
20260905183503 93 272 0.9 5.2 0.00 0.00 0.00 59 1014.9
20260905183003 93 272 2.6 5.2 0.00 0.00 0.00 57 1014.8
20260905182718 93 272 2.6 5.2 0.00 0.00 0.00 57 1015.1
20260905182003 93 272 2.6 9.6 0.00 0.00 0.00 56 1014.8
20260905181503 93 272 2.6 9.6 0.00 0.00 0.00 57 1015.3
20260905181003 93 272 0.9 7.0 0.00 0.00 0.00 59 1015.3
20260905180718 92 272 0.9 7.0 0.00 0.00 0.00 61 1015.2
20260905180003 92 272 0.9 7.0 0.00 0.00 0.00 62 1015.1
20260905175503 92 272 0.9 7.0 0.00 0.00 0.00 59 1015.2
20260905175003 92 272 0.9 3.5 0.00 0.00 0.00 61 1015.2
20260905174718 92 272 0.9 3.5 0.00 0.00 0.00 60 1015.3
20260905174003 92 272 2.6 7.0 0.00 0.00 0.00 62 1015.4
20260905173503 92 292 2.6 7.0 0.00 0.00 0.00 58 1015.3
20260905173003 92 345 2.6 6.1 0.00 0.00 0.00 58 1015.5
20260905172503 92 342 2.6 6.1 0.00 0.00 0.00 61 1015.5
20260905172003 92 318 2.6 5.2 0.00 0.00 0.00 60 1015.6
20260905171503 92 323 2.6 6.1 0.00 0.00 0.00 62 1015.5
20260905171003 91 339 2.6 6.1 0.00 0.00 0.00 62 1015.7
20260905170503 92 350 2.6 5.2 0.00 0.00 0.00 61 1015.8
20260905170003 91 339 0.9 3.5 0.00 0.00 0.00 61 1015.9
20260905165503 90 315 0.9 5.2 0.00 0.00 0.00 63 1015.8
20260905165003 90 8 0.9 5.2 0.00 0.00 0.00 64 1015.8
20260905164503 90 37 0.9 2.6 0.00 0.00 0.00 64 1016.0
20260905164003 90 27 0.9 3.5 0.00 0.00 0.00 66 1016.1
20260905163503 90 19 0.9 3.5 0.00 0.00 0.00 64 1016.2
20260905163003 89 18 2.6 9.6 0.00 0.00 0.00 67 1016.2
20260905162503 89 14 3.5 9.6 0.00 0.00 0.00 66 1016.2
20260905162003 89 13 2.6 8.7 0.00 0.00 0.00 65 1016.4
20260905161503 89 20 2.6 9.6 0.00 0.00 0.00 67 1016.3
20260905161003 88 15 2.6 9.6 0.00 0.00 0.00 65 1016.3
20260905160503 88 360 0.9 3.5 0.00 0.00 0.00 67 1016.5
20260905160003 88 2 2.6 5.2 0.00 0.00 0.00 67 1016.4
20260905155503 88 17 2.6 5.2 0.00 0.00 0.00 66 1016.5
20260905155003 87 19 0.9 5.2 0.00 0.00 0.00 68 1016.5
20260905154503 87 348 0.0 5.2 0.00 0.00 0.00 71 1016.6
20260905154003 87 32 0.0 0.9 0.00 0.00 0.00 72 1016.6
20260905153503 87 0 0.0 0.0 0.00 0.00 0.00 71 1016.5
20260905153003 86 32 0.0 2.6 0.00 0.00 0.00 72 1016.5
20260905152503 86 32 0.0 2.6 0.00 0.00 0.00 72 1016.4
20260905152003 86 39 0.9 5.2 0.00 0.00 0.00 72 1016.4
20260905151503 85 44 0.9 5.2 0.00 0.00 0.00 72 1016.4
20260905151003 85 56 0.9 3.5 0.00 0.00 0.00 74 1016.4
20260905150503 85 56 0.0 3.5 0.00 0.00 0.00 77 1016.4
20260905150003 85 56 0.0 2.6 0.00 0.00 0.00 78 1016.5
20260905145503 84 0 0.0 0.0 0.00 0.00 0.00 77 1016.3
20260905145003 84 0 0.0 0.0 0.00 0.00 0.00 77 1016.4
20260905144503 84 0 0.0 0.0 0.00 0.00 0.00 77 1016.5
20260905144217 83 0 0.0 0.0 0.00 0.00 0.00 77 1016.4
20260905143503 83 0 0.0 0.0 0.00 0.00 0.00 80 1016.3
20260905143217 82 0 0.0 0.0 0.00 0.00 0.00 80 1016.7
20260905142503 82 0 0.0 0.0 0.00 0.00 0.00 81 1016.5
20260905142217 82 0 0.0 0.0 0.00 0.00 0.00 82 1016.6
20260905141503 81 0 0.0 0.0 0.00 0.00 0.00 83 1016.6
20260905141003 81 0 0.0 0.0 0.00 0.00 0.00 84 1016.8
20260905140503 80 0 0.0 0.0 0.00 0.00 0.00 85 1016.8
20260905140004 80 0 0.0 0.0 0.00 0.00 0.00 87 1016.8
20260905135718 80 0 0.0 0.0 0.00 0.00 0.00 87 1016.8
20260905135003 79 58 0.0 3.5 0.00 0.00 0.00 89 1016.8
20260905134503 79 58 0.9 3.5 0.00 0.00 0.00 88 1016.7
20260905134003 79 54 0.0 2.6 0.00 0.00 0.00 88 1016.6
20260905133503 78 51 0.0 2.6 0.00 0.00 0.00 89 1016.9
20260905133217 78 43 0.0 2.6 0.00 0.00 0.00 90 1016.9
20260905132503 77 0 0.0 0.0 0.00 0.00 0.00 90 1016.9
20260905132003 77 0 0.0 0.0 0.00 0.00 0.00 91 1016.9
20260905131503 77 0 0.0 0.0 0.00 0.00 0.00 91 1016.8
20260905131003 77 0 0.0 0.0 0.00 0.00 0.00 91 1016.9
20260905130718 76 0 0.0 0.0 0.00 0.00 0.00 92 1016.9
20260905130003 76 0 0.0 0.0 0.00 0.00 0.00 93 1016.9
20260905125503 76 0 0.0 0.0 0.00 0.00 0.00 93 1016.8
20260905125003 75 43 0.0 0.9 0.00 0.00 0.00 93 1016.8
20260905124503 75 43 0.0 0.9 0.00 0.00 0.00 94 1016.7
20260905124003 75 0 0.0 0.0 0.00 0.00 0.00 94 1016.7
20260905123718 74 0 0.0 0.0 0.00 0.00 0.00 94 1016.8
20260905123003 74 0 0.0 0.0 0.00 0.00 0.00 94 1016.8
20260905122503 74 0 0.0 0.0 0.00 0.00 0.00 94 1016.7
20260905122003 74 0 0.0 0.0 0.00 0.00 0.00 94 1016.6
20260905121503 74 0 0.0 0.0 0.00 0.00 0.00 94 1016.5
20260905121216 74 0 0.0 0.0 0.00 0.00 0.00 94 1016.8
20260905120503 73 0 0.0 0.0 0.00 0.00 0.00 94 1016.7
20260905120003 73 0 0.0 0.0 0.00 0.00 0.00 94 1016.3
20260905115717 73 0 0.0 0.0 0.00 0.00 0.00 94 1016.3
20260905115003 73 0 0.0 0.0 0.00 0.00 0.00 94 1016.0
20260905114503 73 0 0.0 0.0 0.00 0.00 0.00 94 1016.0
20260905114003 73 0 0.0 0.0 0.00 0.00 0.00 94 1016.1
20260905113503 73 0 0.0 0.0 0.00 0.00 0.00 94 1015.9
20260905113003 73 0 0.0 0.0 0.00 0.00 0.00 94 1015.9
20260905112503 73 0 0.0 0.0 0.00 0.00 0.00 94 1016.0
20260905112003 73 0 0.0 0.0 0.00 0.00 0.00 94 1015.9
20260905111717 73 0 0.0 0.0 0.00 0.00 0.00 94 1015.9
20260905111003 73 0 0.0 0.0 0.00 0.00 0.00 94 1015.7
20260905110503 73 0 0.0 0.0 0.00 0.00 0.00 94 1015.8
20260905110003 73 0 0.0 0.0 0.00 0.00 0.00 94 1015.6
20260905105503 73 0 0.0 0.0 0.00 0.00 0.00 94 1015.6
20260905105003 73 0 0.0 0.0 0.00 0.00 0.00 94 1015.4
20260905104503 73 0 0.0 0.0 0.00 0.00 0.00 94 1015.4
20260905104003 73 0 0.0 0.0 0.00 0.00 0.00 94 1015.6
20260905103503 73 0 0.0 0.0 0.00 0.00 0.00 94 1015.6
20260905103003 73 0 0.0 0.0 0.00 0.00 0.00 94 1015.5
20260905102717 73 0 0.0 0.0 0.00 0.00 0.00 94 1015.5
20260905102003 73 0 0.0 0.0 0.00 0.00 0.00 94 1015.6
20260905101503 73 0 0.0 0.0 0.00 0.00 0.00 94 1015.6
20260905101003 73 0 0.0 0.0 0.00 0.00 0.00 93 1015.5
20260905100503 73 0 0.0 0.0 0.00 0.00 0.00 93 1015.3
20260905100218 74 0 0.0 0.0 0.00 0.00 0.00 93 1015.4
20260905095503 74 0 0.0 0.0 0.00 0.00 0.00 93 1015.4
20260905095003 74 0 0.0 0.0 0.00 0.00 0.00 93 1015.4
20260905094503 74 0 0.0 0.0 0.00 0.00 0.00 93 1015.5
20260905094003 74 0 0.0 0.0 0.00 0.00 0.00 93 1015.3
20260905093503 74 0 0.0 0.0 0.00 0.00 0.00 93 1015.3
20260905093217 74 0 0.0 0.0 0.00 0.00 0.00 93 1015.3
20260905092716 74 0 0.0 0.0 0.00 0.00 0.00 93 1015.1
20260905092004 74 0 0.0 0.0 0.00 0.00 0.00 93 1015.2
20260905091503 74 0 0.0 0.0 0.00 0.00 0.00 93 1015.1
20260905091003 74 0 0.0 0.0 0.00 0.00 0.00 93 1015.2
20260905090503 74 0 0.0 0.0 0.00 0.00 0.00 93 1015.2
20260905090218 74 0 0.0 0.0 0.00 0.00 0.00 93 1015.0
20260905085503 74 0 0.0 0.0 0.00 0.00 0.00 93 1015.2
20260905085003 74 0 0.0 0.0 0.00 0.00 0.00 94 1015.1
20260905084503 74 0 0.0 0.0 0.00 0.00 0.00 94 1015.3
20260905084004 74 0 0.0 0.0 0.00 0.00 0.00 93 1015.1
20260905083504 74 0 0.0 0.0 0.00 0.00 0.00 93 1015.1
20260905083218 74 0 0.0 0.0 0.00 0.00 0.00 93 1015.2
20260905082503 74 0 0.0 0.0 0.00 0.00 0.00 93 1015.0